Location: Rounton
(54.4000°N, 1.3500°W)
Time: 22:27:59
(UTC+00:00)

Explorer 7 - Pass Details

Date: 05 December 2021
Orbit: 483 x 674 km, 50.3° (Epoch: 17 January)

Event Time Altitude Azimuth Distance (km) Brightness Sun altitude
Rises 08:35:07 0° 265° (W) 2,738 10.0 2.0°
Reaches altitude 10° 08:37:28 10° 259° (W) 1,809 9.2 2.2°
Maximum altitude 08:41:23 46° 186° (S) 713 7.9 2.6°
Drops below altitude 10° 08:45:06 10° 113° (ESE) 1,716 10.8 3.0°
Sets 08:47:18 0° 107° (ESE) 2,579 11.4 3.2°
